Tracking 19792 objects as of 15-Jul-2019
HD Live streaming from Space Station
objects crossing your sky now

METEOR 2-17 DEB

Track METEOR 2-17 DEB now!
10-day predictions


NORAD ID: 35371
Int'l Code: 1988-005AF
Perigee: 907.5 km
Apogee: 930.2 km
Inclination: 82.5 °
Period: 103.2 minutes
Semi major axis: 7289 km
RCS: 0.0006 m2 (small)
Launch date: January 30, 1988
Source: Commonwealth of Independent States (former USSR) (CIS)
Launch site: PLESETSK MISSILE AND SPACE COMPLEX (PKMTR)

Note: This is SATELLITE DEBRIS
aabbcc
Your satellite tracking list
Your tracking list is empty




NASA's NSSDC Master Catalog

Two Line Element Set (TLE):
1 35371U 88005AF  19195.14194009 +.00000150 +00000-0 +10091-3 0  9993
2 35371 082.5164 137.5984 0015609 292.7595 067.1922 13.94838960306887
Source of the keplerian elements: AFSPC